Wind_Speed
6 7 7 6 6 5 4 3 3 2 1 1 1 2 3 4 5 5 6 6 7 8 8 9 10 10 11 11 11 12 13 14 15 16 17 17 18 19 20 21 23 24 25
6 7 6 5 5 5 4 3 2 2 2 2 2 3 4 5 5 6 7 7 8 9 9 10 11 11 12 12 12 13 14 14 15 16 17 18 18 19 20 22 23 24 25
6 6 6 6 6 5 5 4 4 3 3 3 4 5 5 6 6 7 8 8 9 10 10 11 12 12 13 14 14 15 15 15 16 17 18 18 19 20 20 21 22 23 25
6 7 7 7 7 6 6 6 5 5 5 5 5 6 7 7 8 8 9 9 10 11 12 12 13 14 14 15 16 16 16 17 18 18 19 19 20 21 22 22 23 24 25
8 8 8 8 8 8 7 7 7 7 7 7 7 7 8 9 9 10 10 11 12 13 13 14 15 15 15 16 17 18 18 19 19 19 20 20 21 22 22 22 23 24 25
9 9 9 10 9 9 9 9 9 9 9 9 9 9 10 10 11 12 12 13 13 14 15 16 16 16 17 18 18 19 20 20 20 21 21 22 22 23 23 23 24 24 25
9 10 10 11 11 11 11 11 11 11 11 11 11 12 12 13 13 14 14 15 15 16 16 17 17 18 18 19 19 20 21 21 21 22 22 23 23 24 24 24 25 25 26
11 11 11 12 12 13 13 13 13 13 13 13 14 14 14 15 15 16 16 17 17 18 18 18 19 19 20 21 21 22 22 23 23 23 24 24 24 25 25 26 26 27 27
12 13 13 13 13 14 14 14 15 15 15 15 16 16 16 17 17 18 18 19 19 20 20 21 21 21 22 22 23 24 24 25 25 25 25 26 26 27 27 28 29 29 29
14 14 15 15 15 15 16 16 17 17 17 18 18 18 19 19 19 20 20 21 21 22 22 22 23 23 24 25 25 25 26 27 27 27 28 28 29 30 30 30 31 31 31
16 16 16 17 17 17 17 18 19 19 19 20 20 21 21 21 21 22 22 23 23 23 24 25 25 25 26 26 27 27 28 29 29 30 30 31 31 32 32 32 32 33 33
17 17 18 18 19 20 20 21 21 21 21 22 22 22 22 22 23 23 24 24 25 25 26 26 27 27 28 29 29 30 30 31 31 32 32 32 33 33 33 34 34 34 34
18 19 19 19 20 21 22 22 22 22 23 23 24 24 24 24 24 25 26 27 27 28 28 29 29 30 30 31 32 33 33 33 34 34 34 34 35 35 35 35 35 36 36
20 20 21 21 21 22 22 23 23 24 24 24 25 26 26 26 27 27 29 29 30 30 30 30 31 31 32 33 34 36 36 36 36 37 37 37 37 36 36 36 36 36 36
22 22 22 23 23 23 24 24 25 25 25 26 26 26 27 29 29 30 30 31 32 32 32 33 33 34 35 36 37 38 38 39 39 39 39 38 38 38 38 38 38 38 37
23 23 24 24 24 24 26 26 27 27 28 28 29 30 30 30 31 32 33 34 34 34 35 35 36 37 37 38 39 39 40 40 40 40 40 40 40 40 39 39 39 39 38
24 25 25 25 26 27 27 28 29 29 30 31 32 32 33 33 34 35 35 36 36 37 37 38 39 39 40 40 41 41 42 42 42 42 41 41 41 41 41 41 40 40 39
26 27 27 28 28 29 30 30 30 31 31 32 34 34 35 35 36 37 37 38 39 39 40 40 41 41 42 42 42 43 43 43 43 43 42 42 42 42 42 42 41 41 40
29 29 29 30 30 31 31 32 32 33 34 34 35 36 37 37 38 38 39 39 40 41 42 43 43 43 43 44 44 45 45 44 44 43 43 43 43 42 42 42 41 41 40
31 31 31 31 31 32 32 33 33 34 35 36 36 37 38 38 39 40 40 41 42 43 43 43 44 44 45 45 46 45 45 45 44 43 43 43 43 42 42 41 41 40 39
32 32 33 33 33 33 34 34 35 35 36 36 37 38 39 40 41 42 42 42 43 43 44 44 45 45 46 46 46 45 45 44 44 43 43 43 43 42 41 41 40 39 39
33 33 33 33 33 34 35 35 35 37 38 40 41 41 42 42 43 43 43 44 44 44 45 45 45 46 46 46 46 46 45 45 44 43 43 43 42 42 41 40 40 40 39
32 33 34 35 36 36 36 37 38 39 40 41 42 43 43 44 44 44 44 45 45 46 46 46 45 46 45 45 45 45 45 44 43 43 43 42 42 41 40 39 39 39 38
33 34 34 35 37 38 38 39 40 41 41 42 43 43 44 44 44 45 45 45 45 45 45 45 46 46 46 46 46 45 44 43 43 43 42 42 41 40 39 39 38 38 37
35 35 35 36 38 39 39 40 41 41 41 42 42 43 43 44 44 45 45 45 45 45 45 46 46 46 46 46 46 44 43 43 43 41 40 40 39 38 37 37 37 35 35
36 37 38 39 39 40 40 41 41 42 42 43 44 44 44 45 45 45 45 45 45 46 46 46 46 46 46 46 45 44 42 41 40 39 38 37 36 36 36 35 34 33 33
Wind_Direction
167 165 164 161 162 163 165 166 171 177 201 278 314 319 321 322 319 318 318 318 320 318 316 315 314 315 313 311 307 303 298 293 288 284 281 279 276 274 271 269 267 264 262
178 180 179 178 176 179 187 196 206 221 245 280 307 316 318 317 314 313 314 313 315 315 314 314 314 314 314 313 310 307 304 300 295 291 287 284 281 278 275 272 269 266 265
195 199 201 201 202 206 213 221 225 238 256 279 298 307 309 308 307 307 308 309 311 312 313 313 312 312 312 312 311 309 307 304 300 296 292 289 286 283 280 277 273 270 268
212 214 215 217 220 223 227 232 241 253 266 276 286 295 299 302 302 303 305 306 307 309 310 310 310 310 309 310 310 309 307 305 302 299 295 292 289 288 285 281 277 274 271
224 226 227 229 232 235 238 243 251 260 268 275 282 289 294 297 298 299 301 302 304 305 306 307 307 307 308 308 308 307 306 305 303 300 297 294 292 290 288 285 281 278 276
233 234 236 239 242 244 246 249 255 261 268 275 280 286 290 293 294 295 297 298 300 301 301 302 303 304 305 306 307 306 306 305 303 300 298 296 294 291 289 286 283 281 279
240 240 243 245 247 249 252 255 260 264 269 275 279 282 287 290 291 292 294 296 297 298 299 300 301 301 303 304 304 305 305 305 303 301 299 297 295 292 289 287 284 282 281
245 247 248 249 251 252 255 258 262 267 270 273 275 278 282 286 289 290 292 292 293 295 296 297 298 300 301 303 304 305 304 303 302 301 299 298 296 293 290 288 285 284 283
249 250 252 254 255 258 259 261 264 267 270 272 275 278 282 284 286 288 290 292 293 294 294 295 297 298 299 301 302 303 303 303 302 300 299 298 296 294 291 289 287 285 284
252 254 256 258 259 261 263 265 267 268 271 273 276 278 281 283 285 287 289 291 292 292 293 294 295 296 298 299 301 302 302 302 301 300 299 298 296 294 291 289 288 287 285
255 258 263 261 264 267 268 270 269 270 272 274 277 278 280 282 285 287 289 290 292 292 293 294 295 296 297 298 299 300 300 300 300 299 297 296 296 295 293 291 290 288 287
258 261 264 267 268 269 269 271 271 272 274 276 277 278 280 283 285 287 288 289 290 291 292 293 294 295 296 296 297 297 298 298 298 297 296 295 295 295 294 293 290 288 287
260 263 265 269 269 268 269 271 272 273 274 276 277 279 281 282 284 285 287 289 289 290 291 291 292 293 293 294 294 296 297 297 297 297 296 296 295 294 293 292 290 288 287
262 265 267 270 270 270 271 272 273 273 274 276 279 279 282 283 283 285 287 288 289 289 290 291 291 291 292 293 293 294 295 295 295 296 296 295 294 293 292 291 290 288 287
264 265 268 271 270 270 271 272 273 274 275 277 278 279 282 284 285 286 288 288 288 289 289 289 289 290 290 291 292 293 294 294 294 295 295 294 293 293 292 291 290 289 287
266 267 269 270 271 270 270 271 272 274 275 276 277 279 281 284 285 287 287 287 287 287 288 288 289 289 290 291 292 293 293 293 292 292 292 292 292 291 290 289 288 287 286
268 269 270 271 271 271 271 271 273 274 275 277 279 282 283 284 285 286 286 286 286 287 287 288 289 289 290 291 292 293 293 292 292 291 291 290 290 290 289 289 287 286 285
269 270 271 272 272 273 273 273 273 274 277 279 280 281 282 283 284 285 286 286 286 287 287 288 289 289 289 290 292 292 292 292 292 291 291 290 290 289 289 289 288 286 284
269 271 272 273 273 274 275 275 276 277 278 279 280 281 282 283 284 285 286 286 286 287 288 288 289 290 290 291 292 292 292 291 291 290 290 289 289 290 290 288 287 286 284
269 270 271 272 273 275 276 276 277 278 280 281 282 283 284 285 286 287 287 287 287 288 288 288 288 290 291 291 291 291 290 289 289 288 288 288 287 287 288 287 286 285 283
271 272 274 273 274 275 277 278 278 279 280 282 282 284 285 286 287 288 288 287 287 286 287 288 288 289 290 290 290 290 289 288 288 288 287 286 286 285 286 286 285 284 283
272 274 276 276 276 277 278 279 281 282 282 283 283 283 285 287 287 287 287 287 287 286 287 288 289 290 289 289 289 289 289 288 288 288 287 286 285 285 286 286 284 284 283
275 276 276 277 278 279 281 281 282 282 283 284 284 285 286 288 288 288 288 287 287 288 288 289 289 290 289 289 289 289 289 288 288 288 287 286 286 286 285 284 283 283 282
277 277 277 277 279 281 282 282 283 283 284 285 285 285 286 288 288 288 287 287 287 288 288 289 289 289 289 289 290 289 288 287 287 287 287 287 286 285 284 283 284 284 282
276 277 278 278 279 280 282 283 283 284 285 285 285 286 287 287 288 288 288 287 287 287 288 288 288 288 288 289 290 289 288 288 288 286 286 286 285 284 284 284 284 283 281
278 278 279 279 280 281 282 283 284 284 285 286 286 287 288 289 289 288 287 287 287 287 287 287 288 288 288 289 290 289 288 288 286 285 284 283 283 284 283 282 281 281 281
Height
5844 5845 5846 5847 5848 5849 5850 5850 5851 5851 5851 5851 5850 5850 5850 5849 5848 5847 5846 5845 5844 5843 5842 5841 5839 5838 5836 5835 5834 5832 5831 5830 5828 5827 5826 5825 5824 5824 5823 5822 5821 5821 5821
5844 5845 5846 5846 5847 5848 5849 5849 5849 5849 5849 5849 5849 5848 5848 5847 5846 5845 5844 5843 5842 5841 5839 5838 5836 5835 5833 5832 5830 5828 5827 5825 5824 5822 5821 5820 5819 5818 5817 5816 5815 5815 5814
5843 5844 5845 5845 5846 5846 5847 5847 5848 5848 5848 5847 5847 5846 5846 5845 5844 5843 5842 5841 5840 5838 5837 5835 5833 5832 5830 5828 5826 5824 5823 5821 5819 5817 5816 5814 5813 5811 5810 5809 5808 5808 5807
5841 5842 5843 5844 5844 5845 5845 5845 5845 5846 5845 5845 5845 5844 5843 5843 5842 5841 5839 5838 5837 5835 5834 5832 5830 5828 5826 5824 5822 5820 5818 5816 5814 5812 5810 5808 5807 5805 5803 5802 5801 5800 5799
5839 5840 5841 5841 5842 5842 5842 5843 5843 5843 5843 5842 5842 5841 5841 5840 5839 5838 5836 5835 5833 5832 5830 5828 5826 5824 5822 5820 5818 5816 5814 5811 5809 5807 5804 5802 5800 5799 5797 5795 5794 5792 5791
5837 5837 5838 5839 5839 5839 5840 5840 5840 5840 5839 5839 5839 5838 5837 5836 5835 5834 5833 5831 5830 5828 5826 5824 5822 5820 5818 5816 5813 5811 5809 5806 5803 5801 5799 5796 5794 5792 5790 5788 5786 5785 5784
5834 5834 5835 5835 5836 5836 5836 5836 5836 5836 5836 5835 5835 5834 5833 5832 5831 5830 5829 5827 5826 5824 5822 5820 5818 5815 5813 5811 5808 5806 5803 5800 5797 5795 5792 5790 5787 5785 5783 5781 5778 5777 5775
5830 5831 5832 5832 5832 5832 5832 5832 5832 5832 5832 5831 5831 5830 5829 5828 5827 5825 5824 5822 5821 5819 5817 5815 5813 5810 5808 5805 5802 5800 5797 5794 5791 5789 5786 5783 5780 5778 5775 5773 5771 5769 5767
5827 5827 5828 5828 5828 5828 5828 5828 5828 5827 5827 5826 5826 5825 5824 5823 5822 5820 5819 5817 5815 5813 5811 5809 5807 5804 5802 5799 5796 5793 5790 5787 5784 5782 5779 5776 5773 5770 5767 5765 5763 5760 5759
5822 5823 5824 5824 5824 5823 5823 5823 5823 5822 5822 5821 5821 5820 5818 5817 5816 5814 5813 5811 5809 5807 5805 5802 5800 5797 5795 5792 5789 5786 5783 5780 5777 5774 5771 5768 5765 5762 5759 5756 5753 5751 5749
5818 5818 5818 5818 5818 5818 5818 5818 5818 5817 5816 5816 5815 5813 5812 5811 5810 5808 5806 5804 5802 5800 5798 5795 5793 5790 5787 5785 5782 5779 5776 5773 5770 5766 5763 5760 5756 5753 5750 5746 5744 5741 5739
5812 5813 5813 5813 5813 5813 5812 5812 5811 5810 5810 5809 5808 5807 5806 5804 5802 5801 5799 5797 5795 5793 5790 5788 5785 5782 5780 5777 5774 5771 5768 5765 5761 5758 5754 5751 5747 5743 5740 5736 5733 5730 5728
5807 5807 5807 5807 5807 5807 5806 5806 5805 5804 5803 5802 5801 5800 5798 5797 5795 5793 5791 5789 5787 5785 5782 5780 5777 5774 5771 5768 5765 5762 5758 5755 5752 5748 5744 5741 5737 5733 5729 5726 5722 5719 5717
5800 5801 5801 5801 5800 5800 5799 5799 5798 5797 5796 5795 5794 5792 5791 5789 5787 5785 5783 5781 5779 5777 5774 5771 5769 5766 5763 5759 5756 5752 5748 5745 5741 5737 5734 5730 5726 5723 5719 5715 5712 5708 5706
5794 5794 5794 5794 5793 5793 5792 5792 5791 5790 5788 5787 5786 5784 5783 5781 5779 5777 5775 5773 5770 5768 5765 5762 5759 5756 5753 5749 5746 5742 5738 5734 5730 5726 5723 5719 5715 5711 5708 5704 5701 5697 5695
5787 5787 5787 5786 5786 5785 5784 5783 5782 5782 5780 5779 5777 5776 5774 5773 5770 5768 5766 5763 5760 5758 5755 5752 5749 5745 5742 5738 5735 5731 5727 5722 5719 5715 5711 5707 5703 5700 5696 5692 5689 5685 5683
5780 5779 5779 5778 5778 5777 5776 5775 5774 5773 5771 5770 5768 5766 5764 5762 5760 5758 5755 5753 5750 5747 5744 5741 5737 5734 5730 5726 5723 5719 5715 5710 5706 5702 5699 5695 5691 5687 5684 5680 5677 5673 5671
5772 5771 5770 5769 5769 5768 5767 5766 5765 5763 5762 5760 5758 5756 5754 5752 5749 5747 5744 5741 5738 5735 5732 5729 5725 5721 5718 5714 5710 5706 5702 5697 5693 5689 5685 5682 5678 5674 5671 5667 5664 5661 5658
5763 5762 5761 5760 5759 5758 5757 5756 5755 5753 5752 5750 5747 5745 5743 5740 5738 5735 5732 5729 5726 5723 5719 5716 5712 5708 5705 5701 5697 5692 5688 5684 5680 5676 5672 5668 5664 5661 5657 5654 5651 5648 5645
5753 5752 5752 5751 5749 5748 5747 5746 5744 5743 5741 5739 5737 5734 5732 5729 5726 5723 5719 5716 5713 5710 5706 5702 5699 5695 5691 5687 5683 5679 5674 5670 5666 5662 5659 5655 5651 5648 5645 5641 5638 5635 5633
5743 5742 5741 5741 5739 5738 5737 5735 5733 5731 5729 5727 5725 5722 5719 5716 5713 5710 5706 5703 5699 5696 5692 5689 5685 5681 5677 5673 5669 5664 5660 5656 5653 5649 5645 5642 5638 5635 5632 5629 5626 5623 5620
5734 5733 5732 5730 5729 5727 5726 5724 5722 5720 5717 5715 5712 5709 5706 5703 5699 5696 5693 5689 5686 5682 5678 5675 5671 5667 5663 5659 5655 5650 5646 5642 5639 5635 5631 5628 5625 5622 5619 5616 5613 5610 5608
5724 5723 5721 5720 5718 5716 5714 5712 5710 5708 5705 5702 5699 5696 5693 5690 5686 5683 5679 5676 5672 5668 5664 5660 5656 5652 5648 5644 5640 5636 5632 5628 5625 5621 5618 5615 5612 5609 5606 5604 5601 5598 5596
5713 5712 5710 5709 5707 5705 5702 5700 5698 5695 5692 5689 5686 5683 5680 5676 5673 5669 5665 5662 5658 5654 5650 5646 5642 5638 5634 5630 5626 5622 5618 5614 5611 5608 5605 5602 5599 5596 5593 5591 5589 5586 5584
5702 5700 5699 5697 5695 5693 5690 5688 5685 5682 5679 5676 5672 5669 5666 5662 5659 5655 5651 5647 5644 5640 5636 5632 5628 5624 5619 5615 5612 5608 5604 5601 5597 5594 5591 5589 5586 5584 5581 5579 5576 5575 5573
5691 5689 5687 5685 5682 5680 5677 5674 5671 5668 5665 5662 5658 5655 5652 5648 5644 5640 5637 5633 5629 5625 5621 5617 5613 5609 5605 5601 5597 5593 5590 5587 5584 5581 5578 5575 5573 5571 5569 5567 5565 5564 5562